Location: Fort Wayne
(41.1310°N, 85.1290°W)
Time: 23:40:42
(UTC-04:00)

Amateur Radio Satellites - All Passes

Search period start: 20 October 2014 23:10
Search period end: 21 October 2014 23:10
Location: Fort Wayne, 41.1310°N, 85.1290°W

Satellite Date Start Highest point End Downlink Frequencies (MHz)
Time Altitude Azimuth
HO-68 20 Oct 23:11:18 23:16:57 25° 266° (W) 23:22:39 435.675 MHz FM
KITSAT 1 20 Oct 23:18:38 23:26:45 89° 241° (WSW) 23:34:50 435.175 FM
ZACube-1 20 Oct 23:25:47 23:30:21 65° 259° (W) 23:34:55 437.345 MHz
UKube-1 20 Oct 23:41:59 23:44:40 16° 267° (W) 23:47:22 145.840 MHz, 145.915 MHz
RS-15 21 Oct 00:00:24 00:11:22 77° 118° (ESE) 00:22:16 29.354 - 29.394 USB, Beacon 29.352 USB
FUNcube-1 21 Oct 00:12:56 00:16:29 22° 266° (W) 00:20:01 145.950 - 145.970 MHz USB
SO-50 21 Oct 00:13:21 00:18:07 60° 241° (WSW) 00:22:55 436.795 FM
UOSAT-12 21 Oct 00:21:49 00:25:31 22° 43° (NE) 00:29:11 437.025 FM, 437.400 FM
KITSAT 1 21 Oct 01:16:05 01:21:01 18° 259° (W) 01:25:57 435.175 FM
MaSat-1 21 Oct 01:43:28 01:47:47 84° 115° (ESE) 01:51:42 437.345 MHz
UOSAT-12 21 Oct 02:01:23 02:05:58 53° 242° (WSW) 02:10:28 437.025 FM, 437.400 FM
RS-15 21 Oct 02:14:59 02:24:47 36° 323° (NW) 02:34:41 29.354 - 29.394 USB, Beacon 29.352 USB
JAS-1B 21 Oct 02:28:10 02:33:41 27° 96° (E) 02:39:57 435.800 - 435.900 CW/SSB
Oscar 16 21 Oct 02:28:31 02:32:49 27° 95° (E) 02:37:06 437.025 USB, Beacon 2401.1428
Uribyol 2 21 Oct 02:41:19 02:44:12 15° 90° (E) 02:47:03 436.500 FM
ITAMSAT 1 21 Oct 02:46:04 02:49:07 16° 91° (E) 02:52:09 435.822 SSB
AO-Echo 21 Oct 02:58:31 03:03:02 28° 95° (E) 03:07:33 ?
Oscar 19 21 Oct 03:22:09 03:27:18 85° 104° (ESE) 03:32:25 437.125 CW, 437.150 USB
MaSat-1 21 Oct 03:23:10 03:23:56 10° 310° (NW) 03:24:42 437.345 MHz
AO-27 21 Oct 03:29:04 03:34:01 41° 98° (E) 03:38:54 436.795 MHz FM
Oscar 16 21 Oct 04:07:34 04:12:13 36° 292° (WNW) 04:16:51 437.025 USB, Beacon 2401.1428
JAS-1B 21 Oct 04:18:17 04:24:27 53° 289° (WNW) 04:31:43 435.800 - 435.900 CW/SSB
Gurwin Techsat 1B 21 Oct 04:18:18 04:23:35 61° 101° (E) 04:28:49 435.225 FM
Uribyol 2 21 Oct 04:18:57 04:24:08 67° 287° (WNW) 04:29:16 436.500 FM
ITAMSAT 1 21 Oct 04:23:51 04:29:02 64° 287° (WNW) 04:34:11 435.822 SSB
PCSat 21 Oct 04:26:00 04:29:00 15° 104° (ESE) 04:32:00 145.825 MHz
TMSAT-1 21 Oct 04:32:23 04:37:39 61° 101° (E) 04:42:53 436.925 FM
RS-15 21 Oct 04:34:11 04:41:42 20° 358° (N) 04:49:20 29.354 - 29.394 USB, Beacon 29.352 USB
AO-Echo 21 Oct 04:36:59 04:41:49 37° 291° (WNW) 04:46:40 ?
Oscar 19 21 Oct 05:03:48 05:05:54 13° 301° (WNW) 05:08:01 437.125 CW, 437.150 USB
AO-27 21 Oct 05:09:03 05:13:17 26° 295° (WNW) 05:17:31 436.795 MHz FM
OPAL 21 Oct 05:11:32 05:16:12 36° 66° (ENE) 05:20:51 ?
JAS-2 21 Oct 05:24:00 05:26:32 12° 84° (E) 05:29:04 435.800 - 435.900 CW/SSB, 435.910 FM
AO-7 21 Oct 05:32:56 05:40:53 47° 101° (E) 05:48:48 29.400 - 29.500 MHz
Sapphire 21 Oct 05:43:20 05:48:41 68° 116° (ESE) 05:54:05 437.095 MHz 1200 baud AX-25 AFSK
Gurwin Techsat 1B 21 Oct 05:59:31 06:03:02 18° 298° (WNW) 06:06:33 435.225 FM
PCSat 21 Oct 06:06:21 06:11:45 73° 301° (WNW) 06:17:11 145.825 MHz
TMSAT-1 21 Oct 06:13:33 06:17:03 18° 298° (WNW) 06:20:33 436.925 FM
Uosat F 21 Oct 06:17:48 06:22:53 89° 104° (ESE) 06:27:56 435.120 FM
RS-15 21 Oct 06:49:23 06:59:00 32° 33° (NNE) 07:08:52 29.354 - 29.394 USB, Beacon 29.352 USB
STRAND 1 21 Oct 06:49:26 06:53:49 30° 67° (ENE) 06:58:14 ?
OPAL 21 Oct 06:50:41 06:55:06 28° 262° (W) 06:59:30 ?
Hamsat 21 Oct 07:01:15 07:05:06 35° 97° (E) 07:08:56 145.90 MHz
JAS-2 21 Oct 07:05:01 07:12:42 67° 101° (E) 07:20:29 435.800 - 435.900 CW/SSB, 435.910 FM
AO-7 21 Oct 07:25:57 07:33:31 41° 299° (WNW) 07:41:06 29.400 - 29.500 MHz
Sapphire 21 Oct 07:28:38 07:32:38 21° 315° (NW) 07:36:39 437.095 MHz 1200 baud AX-25 AFSK
PCSat 21 Oct 07:53:24 07:56:09 14° 321° (NW) 07:58:54 145.825 MHz
Uosat F 21 Oct 07:59:07 08:00:54 12° 302° (WNW) 08:02:42 435.120 FM
SO-67 21 Oct 07:59:48 08:02:13 18° 94° (E) 08:04:38 435.3500 MHz FM
STRAND 1 21 Oct 08:28:18 08:32:54 33° 263° (W) 08:37:33 ?
Hamsat 21 Oct 08:37:48 08:40:49 20° 293° (WNW) 08:43:50 145.90 MHz
JAS-2 21 Oct 08:50:54 08:57:07 29° 298° (WNW) 09:03:30 435.800 - 435.900 CW/SSB, 435.910 FM
RS-15 21 Oct 09:01:45 09:12:59 89° 59° (ENE) 09:24:42 29.354 - 29.394 USB, Beacon 29.352 USB
SO-67 21 Oct 09:32:21 09:35:11 24° 289° (WNW) 09:38:00 435.3500 MHz FM
Saudisat 1A 21 Oct 09:41:55 09:46:18 89° 122° (ESE) 09:50:44 436.775 MHz
HO-68 21 Oct 10:36:57 10:44:07 65° 103° (ESE) 10:51:13 435.675 MHz FM
Oscar 11 21 Oct 10:38:01 10:41:23 22° 94° (E) 10:44:43 145.825 FM, Beacon 2401.500 USB
PANSAT 21 Oct 11:07:37 11:08:54 11° 174° (S) 11:10:12 not established
RS-15 21 Oct 11:15:53 11:23:55 23° 259° (W) 11:32:12 29.354 - 29.394 USB, Beacon 29.352 USB
ZACube-1 21 Oct 11:15:55 11:19:23 23° 94° (E) 11:22:47 437.345 MHz
Saudisat 1A 21 Oct 11:24:12 11:26:31 14° 321° (NW) 11:28:50 436.775 MHz
UKube-1 21 Oct 11:28:08 11:32:32 86° 104° (ESE) 11:36:54 145.840 MHz, 145.915 MHz
MaSat-1 21 Oct 11:30:57 11:33:26 35° 249° (WSW) 11:35:43 437.345 MHz
KITSAT 1 21 Oct 11:58:14 12:00:18 11° 97° (E) 12:02:23 435.175 FM
FUNcube-1 21 Oct 12:01:03 12:05:22 77° 102° (ESE) 12:09:33 145.950 - 145.970 MHz USB
Oscar 11 21 Oct 12:13:46 12:17:36 32° 290° (WNW) 12:21:24 145.825 FM, Beacon 2401.500 USB
HO-68 21 Oct 12:25:34 12:31:15 26° 301° (WNW) 12:36:56 435.675 MHz FM
PANSAT 21 Oct 12:47:02 12:48:16 11° 187° (S) 12:49:31 not established
Sapphire 21 Oct 12:50:40 12:52:03 11° 35° (NE) 12:53:26 437.095 MHz 1200 baud AX-25 AFSK
ZACube-1 21 Oct 12:52:04 12:55:47 29° 291° (WNW) 12:59:25 437.345 MHz
Oscar 19 21 Oct 13:02:19 13:05:21 16° 61° (ENE) 13:08:23 437.125 CW, 437.150 USB
PCSat 21 Oct 13:12:17 13:15:37 16° 41° (NE) 13:18:57 145.825 MHz
JAS-1B 21 Oct 13:16:12 13:20:21 20° 62° (ENE) 13:24:21 435.800 - 435.900 CW/SSB
FUNcube-1 21 Oct 13:40:44 13:41:04 10° 299° (WNW) 13:41:23 145.950 - 145.970 MHz USB
Oscar 16 21 Oct 13:45:16 13:50:03 39° 69° (ENE) 13:54:50 437.025 USB, Beacon 2401.1428
KITSAT 1 21 Oct 13:46:12 13:54:09 67° 115° (ESE) 14:02:09 435.175 FM
Uribyol 2 21 Oct 13:58:44 14:02:49 24° 64° (ENE) 14:06:55 436.500 FM
ISS 21 Oct 14:01:38 14:03:42 16° 131° (SE) 14:05:46 145.800 FM
Gurwin Techsat 1B 21 Oct 14:03:06 14:05:27 13° 59° (ENE) 14:07:49 435.225 FM
ITAMSAT 1 21 Oct 14:03:40 14:07:49 25° 65° (ENE) 14:11:59 435.822 SSB
AO-Echo 21 Oct 14:11:35 14:15:54 33° 68° (ENE) 14:20:21 ?
TMSAT-1 21 Oct 14:16:56 14:19:13 13° 59° (ENE) 14:21:31 436.925 FM
SO-50 21 Oct 14:28:11 14:32:26 45° 117° (ESE) 14:36:50 436.795 FM
Sapphire 21 Oct 14:31:26 14:36:46 53° 56° (ENE) 14:42:03 437.095 MHz 1200 baud AX-25 AFSK
Oscar 19 21 Oct 14:39:00 14:44:07 68° 258° (WSW) 14:49:16 437.125 CW, 437.150 USB
AO-7 21 Oct 14:44:33 14:48:34 15° 46° (NE) 14:52:35 29.400 - 29.500 MHz
AO-27 21 Oct 14:47:04 14:52:11 62° 72° (ENE) 14:57:21 436.795 MHz FM
PCSat 21 Oct 14:54:23 14:59:50 88° 61° (ENE) 15:05:15 145.825 MHz
JAS-1B 21 Oct 15:04:36 15:10:41 57° 259° (WSW) 15:16:18 435.800 - 435.900 CW/SSB
Oscar 16 21 Oct 15:25:18 15:29:30 25° 265° (W) 15:33:43 437.025 USB, Beacon 2401.1428
ISS 21 Oct 15:36:46 15:40:04 61° 327° (NNW) 15:43:23 145.800 FM
Uribyol 2 21 Oct 15:37:02 15:41:59 44° 261° (W) 15:47:00 436.500 FM
Oscar 10/S400 21 Oct 15:38:50 15:56:23 45° 157° (SSE) 16:26:02 145.825 - 145.975 CW/USB, Beacon 145.810 USB
Gurwin Techsat 1B 21 Oct 15:39:21 15:44:39 87° 256° (WSW) 15:50:00 435.225 FM
ITAMSAT 1 21 Oct 15:42:09 15:47:03 42° 261° (W) 15:52:01 435.822 SSB
KITSAT 1 21 Oct 15:43:02 15:50:08 33° 317° (NW) 15:57:16 435.175 FM
AO-Echo 21 Oct 15:50:38 15:54:41 27° 266° (W) 15:58:53 ?
TMSAT-1 21 Oct 15:53:04 15:58:22 88° 256° (WSW) 16:03:42 436.925 FM
Uosat F 21 Oct 15:54:53 15:57:47 16° 61° (ENE) 16:00:42 435.120 FM
SO-50 21 Oct 16:09:34 16:13:13 23° 316° (NW) 16:16:57 436.795 FM
UOSAT-12 21 Oct 16:12:10 16:16:35 47° 117° (ESE) 16:21:06 437.025 FM, 437.400 FM
Sapphire 21 Oct 16:15:44 16:19:46 21° 254° (WSW) 16:23:46 437.095 MHz 1200 baud AX-25 AFSK
AO-27 21 Oct 16:28:58 16:32:06 16° 269° (W) 16:35:16 436.795 MHz FM
Saudisat 1A 21 Oct 16:31:13 16:32:41 11° 36° (NE) 16:34:10 436.775 MHz
AO-7 21 Oct 16:31:37 16:39:43 63° 67° (ENE) 16:47:52 29.400 - 29.500 MHz
PCSat 21 Oct 16:40:29 16:42:26 12° 258° (WSW) 16:44:22 145.825 MHz
ISS 21 Oct 17:14:59 17:17:18 17° 346° (NNW) 17:19:37 145.800 FM
JAS-2 21 Oct 17:18:33 17:23:19 26° 61° (ENE) 17:28:34 435.800 - 435.900 CW/SSB, 435.910 FM
Uosat F 21 Oct 17:31:01 17:36:00 67° 258° (WSW) 17:41:02 435.120 FM
TMSAT-1 21 Oct 17:38:54 17:39:00 10° 273° (W) 17:39:06 436.925 FM
KITSAT 1 21 Oct 17:45:31 17:48:37 12° 345° (NNW) 17:51:42 435.175 FM
UOSAT-12 21 Oct 17:53:11 17:56:58 24° 315° (NW) 18:00:48 437.025 FM, 437.400 FM
Hamsat 21 Oct 17:54:47 17:58:16 26° 69° (ENE) 18:01:44 145.90 MHz
Saudisat 1A 21 Oct 18:08:40 18:13:05 69° 56° (NE) 18:17:29 436.775 MHz
AO-7 21 Oct 18:26:05 18:32:58 29° 265° (W) 18:39:54 29.400 - 29.500 MHz
ISS 21 Oct 18:53:06 18:55:01 14° 6° (N) 18:56:55 145.800 FM
OPAL 21 Oct 18:59:44 19:04:44 76° 105° (ESE) 19:09:39 ?
JAS-2 21 Oct 19:02:26 19:07:57 50° 262° (W) 19:14:14 435.800 - 435.900 CW/SSB, 435.910 FM
Hamsat 21 Oct 19:30:34 19:34:07 26° 265° (W) 19:37:41 145.90 MHz
KITSAT 1 21 Oct 19:45:14 19:48:30 13° 17° (NNE) 19:51:46 435.175 FM
Saudisat 1A 21 Oct 19:50:16 19:52:04 12° 252° (WSW) 19:53:53 436.775 MHz
SO-67 21 Oct 20:04:00 20:07:26 80° 259° (W) 20:10:53 435.3500 MHz FM
ISS 21 Oct 20:29:26 20:32:30 32° 26° (NNE) 20:35:32 145.800 FM
STRAND 1 21 Oct 20:38:16 20:43:27 83° 104° (ESE) 20:48:36 ?
OPAL 21 Oct 20:40:27 20:42:58 14° 302° (WNW) 20:45:29 ?
HO-68 21 Oct 21:05:15 21:12:01 48° 66° (ENE) 21:18:50 435.675 MHz FM
Oscar 11 21 Oct 21:33:34 21:36:32 18° 66° (ENE) 21:39:30 145.825 FM, Beacon 2401.500 USB
KITSAT 1 21 Oct 21:39:40 21:46:53 34° 44° (NE) 21:54:04 435.175 FM
ISS 21 Oct 22:06:08 22:09:12 34° 223° (SW) 22:12:15 145.800 FM
ZACube-1 21 Oct 22:12:21 22:15:51 22° 67° (ENE) 22:19:20 437.345 MHz
STRAND 1 21 Oct 22:19:35 22:21:55 13° 301° (WNW) 22:24:16 ?
UKube-1 21 Oct 22:23:15 22:27:35 74° 75° (ENE) 22:31:57 145.840 MHz, 145.915 MHz
HO-68 21 Oct 22:53:35 22:59:52 33° 264° (W) 23:06:13 435.675 MHz FM
FUNcube-1 21 Oct 22:56:43 23:01:15 62° 74° (ENE) 23:05:45 145.950 - 145.970 MHz USB
SO-50 21 Oct 22:59:34 23:04:11 43° 51° (NE) 23:08:51 436.795 FM
